星链-32741 (STARLINK-32741)

导读

STARLINK-32741是美国于北京时间2025年1月8日08:00发射的星链卫星,隶属于SpaceX公司打造的星链星座系统。星链项目旨在构建覆盖全球的卫星互联网星座,为全球用户提供低延迟、高速率的网络接入服务,这类低轨卫星发射进一步推进了星链星座的部署进程,强化了其全球网络覆盖能力。

基本信息
目录编号:
62526
目录名称:
STARLINK-32741
国际标识:
2025-004R
轨道中心:
EARTH
卫星名称:
星链-32741
卫星全名:
星链-32741 (STARLINK-32741)
卫星状态:
在轨 (已飞行522 天)
发射日期:
2025-01-08 UTC
国别 :
美国 (US)
星等 :
--
轨道信息
数据来源 国际轨道数据
星历时间: 2026-06-14T06:06:40+0800
11小时前
查看轨道信息
半长轴: 6861.039km
偏心率: 0.0000899
轨道倾角: 43.000°
近地点辐角 165.323°
升交点赤经 33.147°
平近点角 194.765°
近地点: 482.285km
远地点: 483.519km
周期: 94.264分钟
每日圈数: 15.276293
详细信息
固有亮度:
5
最大亮度:
2.5
卫星平台:
Starlink V1.0
覆盖范围:
全球
运营商:
太空探索技术公司
运营商所在国:
美国
制造商(研发单位):
太空探索技术公司
制造商所在国:
美国
使用方式:
暂无
卫星简介
Starlink 计划是 SpaceX 推出的全球卫星互联网项目,通过发射低轨道卫星,为全球尤其是偏远地区提供高速、低延迟的互联网服务。自 2019 年起,Starlink 已部署数千颗卫星,旨在缩小全球数字鸿沟,推动互联网普及。该项目还为军事、航空等行业提供通信支持,带来广泛经济效益。
2D轨道图
3D轨道图
轨道高度分析图
轨道倾角分析图
轨道综合分析图
查看轨道综合分析图